Location: Canazei
(46.4667°N, 11.7667°E)
Time: 17:37:24
(UTC+00:00)

Spot 1 - Pass Details

Date: 21 April 2021
Orbit: 576 x 776 km, 98.7° (Epoch: 11 May)

Event Time Altitude Azimuth Distance (km) Brightness Sun altitude
Exits shadow 01:59:49 50° 186° (S) 763 4.1 -20.6°
Maximum altitude 02:00:49 74° 256° (WSW) 630 3.9 -20.4°
Drops below altitude 10° 02:05:09 10° 342° (NNW) 2,003 7.0 -19.9°
Sets 02:07:25 0° 345° (NNW) 2,945 7.9 -19.6°
